| time (UTC) | temp C | wind direction | speed KPH | gust KPH | rain 1hr cm | rain 24hr cm | rain mn cm | humidity % | barometer mb |
| 20260507070143 | 20 | 33 | 3.2 | 11.3 | 0.00 | 0.00 | 0.00 | 54 | 1023.1 |
| 20260507065639 | 20 | 51 | 8.0 | 11.3 | 0.00 | 0.00 | 0.00 | 53 | 1023.0 |
| 20260507065137 | 21 | 77 | 8.0 | 12.9 | 0.00 | 0.00 | 0.00 | 53 | 1023.2 |
| 20260507064634 | 21 | 47 | 1.6 | 11.3 | 0.00 | 0.00 | 0.00 | 53 | 1023.1 |
| 20260507064133 | 21 | 307 | 8.0 | 9.7 | 0.00 | 0.00 | 0.00 | 50 | 1023.3 |
| 20260507063630 | 20 | 123 | 3.2 | 3.2 | 0.00 | 0.00 | 0.00 | 50 | 1023.2 |
| 20260507063127 | 20 | 65 | 4.8 | 4.8 | 0.00 | 0.00 | 0.00 | 51 | 1023.1 |
| 20260507062623 | 20 | 328 | 6.4 | 9.7 | 0.00 | 0.00 | 0.00 | 54 | 1023.2 |
| 20260507062121 | 20 | 42 | 3.2 | 4.8 | 0.00 | 0.00 | 0.00 | 56 | 1023.0 |
| 20260507061619 | 20 | 19 | 4.8 | 12.9 | 0.00 | 0.00 | 0.00 | 55 | 1023.0 |
| 20260507061117 | 20 | 125 | 0.0 | 3.2 | 0.00 | 0.00 | 0.00 | 57 | 1023.1 |
| 20260507060615 | 19 | 342 | 4.8 | 12.9 | 0.00 | 0.00 | 0.00 | 60 | 1022.9 |
| 20260507060111 | 20 | 0 | 6.4 | 9.7 | 0.00 | 0.00 | 0.00 | 59 | 1023.2 |
| 20260507055606 | 19 | 348 | 8.0 | 9.7 | 0.00 | 0.00 | 0.00 | 60 | 1023.0 |
| 20260507055102 | 19 | 347 | 4.8 | 8.0 | 0.00 | 0.00 | 0.00 | 61 | 1023.0 |
| 20260507054558 | 19 | 359 | 4.8 | 4.8 | 0.00 | 0.00 | 0.00 | 62 | 1022.7 |
| 20260507054056 | 19 | 62 | 3.2 | 4.8 | 0.00 | 0.00 | 0.00 | 65 | 1023.1 |
| 20260507053553 | 18 | 160 | 4.8 | 11.3 | 0.00 | 0.00 | 0.00 | 67 | 1022.7 |
| 20260507053052 | 18 | 345 | 4.8 | 11.3 | 0.00 | 0.00 | 0.00 | 67 | 1022.9 |
| 20260507052549 | 18 | 343 | 6.4 | 11.3 | 0.00 | 0.00 | 0.00 | 68 | 1022.7 |
| 20260507052046 | 18 | 295 | 9.7 | 12.9 | 0.00 | 0.00 | 0.00 | 68 | 1022.9 |
| 20260507051543 | 18 | 319 | 6.4 | 9.7 | 0.00 | 0.00 | 0.00 | 69 | 1022.8 |
| 20260507051040 | 18 | 304 | 6.4 | 11.3 | 0.00 | 0.00 | 0.00 | 69 | 1022.8 |
| 20260507050537 | 18 | 114 | 0.0 | 1.6 | 0.00 | 0.00 | 0.00 | 69 | 1022.8 |
| 20260507050033 | 18 | 293 | 1.6 | 3.2 | 0.00 | 0.00 | 0.00 | 68 | 1022.8 |
| 20260507045530 | 18 | 114 | 1.6 | 4.8 | 0.00 | 0.00 | 0.00 | 67 | 1022.7 |
| 20260507045027 | 17 | 138 | 0.0 | 1.6 | 0.00 | 0.00 | 0.00 | 70 | 1022.7 |
| 20260507044524 | 17 | 134 | 0.0 | 4.8 | 0.00 | 0.00 | 0.00 | 71 | 1022.7 |
| 20260507044021 | 17 | 322 | 4.8 | 8.0 | 0.00 | 0.00 | 0.00 | 71 | 1022.6 |
| 20260507043516 | 16 | 240 | 3.2 | 3.2 | 0.00 | 0.00 | 0.00 | 72 | 1022.7 |
| 20260507043014 | 16 | 1 | 3.2 | 8.0 | 0.00 | 0.00 | 0.00 | 72 | 1022.8 |
| 20260507042510 | 16 | 158 | 0.0 | 1.6 | 0.00 | 0.00 | 0.00 | 73 | 1022.6 |
| 20260507042005 | 16 | 212 | 3.2 | 4.8 | 0.00 | 0.00 | 0.00 | 73 | 1022.5 |
| 20260507041503 | 16 | 285 | 8.0 | 9.7 | 0.00 | 0.00 | 0.00 | 73 | 1022.8 |
| 20260507040959 | 16 | 330 | 3.2 | 3.2 | 0.00 | 0.00 | 0.00 | 74 | 1022.5 |
| 20260507040455 | 15 | 292 | 4.8 | 8.0 | 0.00 | 0.00 | 0.00 | 74 | 1022.3 |
| 20260507035951 | 15 | 304 | 6.4 | 11.3 | 0.00 | 0.00 | 0.00 | 75 | 1022.4 |
| 20260507035448 | 15 | 13 | 11.3 | 12.9 | 0.00 | 0.00 | 0.00 | 75 | 1022.4 |
| 20260507034945 | 15 | 320 | 11.3 | 12.9 | 0.00 | 0.00 | 0.00 | 76 | 1022.3 |
| 20260507034442 | 15 | 3 | 6.4 | 12.9 | 0.00 | 0.00 | 0.00 | 76 | 1022.4 |
| 20260507033940 | 14 | 312 | 6.4 | 12.9 | 0.00 | 0.00 | 0.00 | 77 | 1022.1 |
| 20260507033437 | 14 | 16 | 8.0 | 9.7 | 0.00 | 0.00 | 0.00 | 77 | 1022.1 |
| 20260507032934 | 14 | 330 | 6.4 | 12.9 | 0.00 | 0.00 | 0.00 | 78 | 1022.2 |
| 20260507032431 | 13 | 314 | 9.7 | 12.9 | 0.00 | 0.00 | 0.00 | 78 | 1022.2 |
| 20260507031927 | 13 | 324 | 8.0 | 11.3 | 0.00 | 0.00 | 0.00 | 78 | 1022.1 |
| 20260507031426 | 13 | 316 | 11.3 | 12.9 | 0.00 | 0.00 | 0.00 | 78 | 1022.1 |
| 20260507030921 | 13 | 343 | 4.8 | 9.7 | 0.00 | 0.00 | 0.00 | 78 | 1022.0 |
| 20260507030418 | 13 | 309 | 9.7 | 11.3 | 0.00 | 0.00 | 0.00 | 79 | 1022.0 |
| 20260507025915 | 13 | 325 | 8.0 | 11.3 | 0.00 | 0.00 | 0.00 | 79 | 1022.3 |
| 20260507025412 | 13 | 329 | 9.7 | 12.9 | 0.00 | 0.00 | 0.00 | 80 | 1021.8 |
| 20260507024910 | 13 | 323 | 8.0 | 12.9 | 0.00 | 0.00 | 0.00 | 80 | 1022.0 |
| 20260507024407 | 13 | 340 | 9.7 | 14.5 | 0.00 | 0.00 | 0.00 | 80 | 1022.0 |
| 20260507023903 | 13 | 317 | 8.0 | 12.9 | 0.00 | 0.00 | 0.00 | 80 | 1021.8 |
| 20260507023400 | 13 | 319 | 12.9 | 12.9 | 0.00 | 0.00 | 0.00 | 80 | 1021.8 |
| 20260507022857 | 13 | 315 | 14.5 | 17.7 | 0.00 | 0.00 | 0.00 | 81 | 1021.7 |
| 20260507022353 | 13 | 344 | 11.3 | 14.5 | 0.00 | 0.00 | 0.00 | 81 | 1021.5 |
| 20260507021849 | 13 | 340 | 12.9 | 14.5 | 0.00 | 0.00 | 0.00 | 81 | 1021.6 |
| 20260507021345 | 13 | 329 | 14.5 | 14.5 | 0.00 | 0.00 | 0.00 | 81 | 1021.5 |
| 20260507020843 | 13 | 338 | 11.3 | 14.5 | 0.00 | 0.00 | 0.00 | 81 | 1021.5 |
| 20260507020339 | 13 | 330 | 8.0 | 14.5 | 0.00 | 0.00 | 0.00 | 81 | 1021.5 |
| 20260507015836 | 13 | 329 | 11.3 | 12.9 | 0.00 | 0.00 | 0.00 | 81 | 1021.6 |
| 20260507015334 | 13 | 319 | 11.3 | 14.5 | 0.00 | 0.00 | 0.00 | 80 | 1021.7 |
| 20260507014831 | 13 | 327 | 9.7 | 14.5 | 0.00 | 0.00 | 0.00 | 80 | 1021.6 |
| 20260507014327 | 13 | 334 | 12.9 | 14.5 | 0.00 | 0.00 | 0.00 | 80 | 1021.6 |
| 20260507013824 | 13 | 353 | 11.3 | 14.5 | 0.00 | 0.00 | 0.00 | 79 | 1021.4 |
| 20260507013321 | 13 | 330 | 12.9 | 16.1 | 0.00 | 0.00 | 0.00 | 79 | 1021.5 |
| 20260507012819 | 13 | 330 | 11.3 | 14.5 | 0.00 | 0.00 | 0.00 | 79 | 1021.5 |
| 20260507012314 | 13 | 354 | 11.3 | 12.9 | 0.00 | 0.00 | 0.00 | 78 | 1021.6 |
| 20260507011812 | 13 | 347 | 9.7 | 14.5 | 0.00 | 0.00 | 0.00 | 78 | 1021.3 |
| 20260507011308 | 13 | 336 | 9.7 | 14.5 | 0.00 | 0.00 | 0.00 | 78 | 1021.4 |
| 20260507010808 | 13 | 334 | 12.9 | 16.1 | 0.00 | 0.00 | 0.00 | 78 | 1021.4 |
| 20260507010304 | 13 | 338 | 9.7 | 12.9 | 0.00 | 0.00 | 0.00 | 79 | 1021.4 |
| 20260507005802 | 13 | 11 | 8.0 | 11.3 | 0.00 | 0.00 | 0.00 | 79 | 1021.4 |
| 20260507005258 | 13 | 340 | 6.4 | 12.9 | 0.00 | 0.00 | 0.00 | 78 | 1021.3 |
| 20260507004754 | 13 | 322 | 6.4 | 11.3 | 0.00 | 0.00 | 0.00 | 78 | 1021.6 |
| 20260507004252 | 13 | 344 | 6.4 | 11.3 | 0.00 | 0.00 | 0.00 | 78 | 1021.6 |
| 20260507003748 | 13 | 324 | 9.7 | 14.5 | 0.00 | 0.00 | 0.00 | 77 | 1021.5 |
| 20260507003243 | 13 | 326 | 8.0 | 11.3 | 0.00 | 0.00 | 0.00 | 77 | 1021.5 |
| 20260507002740 | 13 | 338 | 8.0 | 11.3 | 0.00 | 0.00 | 0.00 | 78 | 1021.5 |
| 20260507002236 | 13 | 7 | 11.3 | 16.1 | 0.00 | 0.00 | 0.00 | 78 | 1021.5 |
| 20260507001733 | 13 | 333 | 6.4 | 12.9 | 0.00 | 0.00 | 0.00 | 78 | 1021.5 |
| 20260507001230 | 13 | 325 | 11.3 | 14.5 | 0.00 | 0.00 | 0.00 | 78 | 1021.6 |
| 20260507000727 | 13 | 299 | 12.9 | 14.5 | 0.00 | 0.00 | 0.00 | 78 | 1021.6 |
| 20260507000222 | 13 | 309 | 9.7 | 12.9 | 0.00 | 0.00 | 0.00 | 78 | 1021.7 |
| 20260506235719 | 13 | 312 | 14.5 | 17.7 | 0.00 | 0.00 | 0.00 | 78 | 1021.7 |
| 20260506235214 | 13 | 319 | 8.0 | 14.5 | 0.00 | 0.00 | 0.00 | 78 | 1021.7 |
| 20260506234712 | 13 | 322 | 14.5 | 17.7 | 0.00 | 0.00 | 0.00 | 78 | 1021.5 |
| 20260506234209 | 13 | 347 | 14.5 | 17.7 | 0.00 | 0.00 | 0.00 | 78 | 1021.6 |
| 20260506233707 | 13 | 338 | 11.3 | 17.7 | 0.00 | 0.00 | 0.00 | 77 | 1021.7 |
| 20260506233203 | 13 | 347 | 12.9 | 16.1 | 0.00 | 0.00 | 0.00 | 77 | 1021.5 |
| 20260506232659 | 13 | 330 | 1.6 | 8.0 | 0.00 | 0.00 | 0.00 | 77 | 1021.4 |
| 20260506232154 | 13 | 325 | 0.0 | 8.0 | 0.00 | 0.00 | 0.00 | 77 | 1021.4 |
| 20260506231652 | 13 | 338 | 0.0 | 4.8 | 0.00 | 0.00 | 0.00 | 78 | 1021.6 |
| 20260506231151 | 13 | 333 | 1.6 | 8.0 | 0.00 | 0.00 | 0.00 | 79 | 1021.5 |
| 20260506230647 | 13 | 344 | 3.2 | 9.7 | 0.00 | 0.00 | 0.00 | 80 | 1021.6 |
| 20260506230144 | 13 | 343 | 8.0 | 11.3 | 0.00 | 0.00 | 0.00 | 80 | 1021.6 |
| 20260506225640 | 13 | 344 | 4.8 | 11.3 | 0.00 | 0.00 | 0.00 | 80 | 1021.7 |
| 20260506225137 | 13 | 358 | 4.8 | 12.9 | 0.00 | 0.00 | 0.00 | 80 | 1021.7 |
| 20260506224633 | 13 | 7 | 4.8 | 11.3 | 0.00 | 0.00 | 0.00 | 80 | 1021.6 |
| 20260506224130 | 13 | 353 | 6.4 | 11.3 | 0.00 | 0.00 | 0.00 | 79 | 1021.7 |
| 20260506223626 | 13 | 328 | 6.4 | 11.3 | 0.00 | 0.00 | 0.00 | 79 | 1021.8 |
| 20260506223122 | 14 | 317 | 9.7 | 12.9 | 0.00 | 0.00 | 0.00 | 78 | 1021.7 |
| 20260506222620 | 13 | 6 | 8.0 | 11.3 | 0.00 | 0.00 | 0.00 | 78 | 1021.6 |
| 20260506222116 | 13 | 340 | 3.2 | 9.7 | 0.00 | 0.00 | 0.00 | 78 | 1021.8 |
| 20260506221614 | 13 | 336 | 1.6 | 11.3 | 0.00 | 0.00 | 0.00 | 79 | 1021.7 |
| 20260506221112 | 13 | 329 | 0.0 | 8.0 | 0.00 | 0.00 | 0.00 | 78 | 1021.7 |
| 20260506220608 | 13 | 351 | 0.0 | 9.7 | 0.00 | 0.00 | 0.00 | 77 | 1021.7 |
| 20260506215600 | 14 | 325 | 4.8 | 8.0 | 0.00 | 0.00 | 0.00 | 76 | 1021.7 |
| 20260506215055 | 14 | 336 | 4.8 | 14.5 | 0.00 | 0.00 | 0.00 | 75 | 1021.7 |
| 20260506214553 | 14 | 324 | 9.7 | 12.9 | 0.00 | 0.00 | 0.00 | 74 | 1022.0 |
| 20260506214050 | 15 | 328 | 1.6 | 14.5 | 0.00 | 0.00 | 0.00 | 72 | 1021.7 |
| 20260506213548 | 15 | 329 | 0.0 | 12.9 | 0.00 | 0.00 | 0.00 | 70 | 1021.7 |
| 20260506213045 | 15 | 326 | 0.0 | 3.2 | 0.00 | 0.00 | 0.00 | 71 | 1021.7 |
| 20260506212542 | 15 | 314 | 0.0 | 0.0 | 0.00 | 0.00 | 0.00 | 71 | 1021.7 |
| 20260506212036 | 15 | 319 | 0.0 | 0.0 | 0.00 | 0.00 | 0.00 | 72 | 1021.8 |
| 20260506211533 | 15 | 331 | 0.0 | 0.0 | 0.00 | 0.00 | 0.00 | 75 | 1021.9 |
| 20260506211030 | 15 | 324 | 0.0 | 3.2 | 0.00 | 0.00 | 0.00 | 77 | 1021.9 |
| 20260506210526 | 15 | 330 | 0.0 | 0.0 | 0.00 | 0.00 | 0.00 | 78 | 1021.8 |
| 20260506210023 | 15 | 304 | 0.0 | 0.0 | 0.00 | 0.00 | 0.00 | 78 | 1021.8 |
| 20260506205520 | 15 | 296 | 0.0 | 4.8 | 0.00 | 0.00 | 0.00 | 77 | 1021.8 |
| 20260506205015 | 15 | 291 | 4.8 | 4.8 | 0.00 | 0.00 | 0.00 | 76 | 1021.9 |
| 20260506204514 | 15 | 287 | 4.8 | 4.8 | 0.00 | 0.00 | 0.00 | 75 | 1021.7 |
| 20260506204010 | 15 | 311 | 3.2 | 3.2 | 0.00 | 0.00 | 0.00 | 75 | 1021.8 |
| 20260506203508 | 15 | 316 | 3.2 | 3.2 | 0.00 | 0.00 | 0.00 | 74 | 1022.0 |
| 20260506203004 | 15 | 316 | 1.6 | 3.2 | 0.00 | 0.00 | 0.00 | 73 | 1021.7 |
| 20260506202502 | 15 | 328 | 1.6 | 3.2 | 0.00 | 0.00 | 0.00 | 74 | 1021.9 |
| 20260506201958 | 15 | 334 | 1.6 | 1.6 | 0.00 | 0.00 | 0.00 | 75 | 1021.9 |
| 20260506201456 | 15 | 357 | 1.6 | 1.6 | 0.00 | 0.00 | 0.00 | 75 | 1021.9 |
| 20260506200952 | 15 | 355 | 1.6 | 1.6 | 0.00 | 0.00 | 0.00 | 75 | 1022.1 |
| 20260506200449 | 15 | 34 | 1.6 | 1.6 | 0.00 | 0.00 | 0.00 | 75 | 1022.0 |
| 20260506195945 | 15 | 348 | 3.2 | 3.2 | 0.00 | 0.00 | 0.00 | 76 | 1021.9 |
| 20260506195442 | 15 | 86 | 0.0 | 0.0 | 0.00 | 0.00 | 0.00 | 76 | 1021.9 |
| 20260506194938 | 15 | 102 | 0.0 | 0.0 | 0.00 | 0.00 | 0.00 | 75 | 1022.0 |
| 20260506194436 | 15 | 214 | 0.0 | 0.0 | 0.00 | 0.00 | 0.00 | 75 | 1021.9 |
| 20260506193933 | 15 | 238 | 0.0 | 0.0 | 0.00 | 0.00 | 0.00 | 75 | 1021.9 |
| 20260506193430 | 15 | 227 | 0.0 | 0.0 | 0.00 | 0.00 | 0.00 | 74 | 1021.8 |
| 20260506192926 | 16 | 192 | 0.0 | 0.0 | 0.00 | 0.00 | 0.00 | 74 | 1021.9 |
| 20260506192423 | 16 | 200 | 0.0 | 0.0 | 0.00 | 0.00 | 0.00 | 74 | 1022.0 |
| 20260506191920 | 16 | 182 | 0.0 | 0.0 | 0.00 | 0.00 | 0.00 | 73 | 1021.7 |
| 20260506191416 | 16 | 132 | 0.0 | 0.0 | 0.00 | 0.00 | 0.00 | 73 | 1021.9 |
| 20260506190914 | 16 | 159 | 0.0 | 0.0 | 0.00 | 0.00 | 0.00 | 73 | 1021.8 |
| 20260506190410 | 16 | 130 | 0.0 | 0.0 | 0.00 | 0.00 | 0.00 | 73 | 1021.9 |
| 20260506185907 | 16 | 127 | 0.0 | 0.0 | 0.00 | 0.00 | 0.00 | 73 | 1021.8 |
| 20260506185404 | 16 | 137 | 0.0 | 1.6 | 0.00 | 0.00 | 0.00 | 73 | 1021.8 |
| 20260506184901 | 16 | 183 | 1.6 | 1.6 | 0.00 | 0.00 | 0.00 | 73 | 1021.6 |
| 20260506184358 | 16 | 169 | 0.0 | 1.6 | 0.00 | 0.00 | 0.00 | 72 | 1021.6 |
| 20260506183855 | 16 | 180 | 1.6 | 1.6 | 0.00 | 0.00 | 0.00 | 72 | 1021.7 |
| 20260506183350 | 16 | 151 | 0.0 | 1.6 | 0.00 | 0.00 | 0.00 | 72 | 1021.5 |
| 20260506182848 | 16 | 164 | 0.0 | 0.0 | 0.00 | 0.00 | 0.00 | 72 | 1021.5 |
| 20260506182345 | 16 | 164 | 0.0 | 0.0 | 0.00 | 0.00 | 0.00 | 71 | 1021.5 |
| 20260506181842 | 16 | 157 | 0.0 | 0.0 | 0.00 | 0.00 | 0.00 | 71 | 1021.6 |
| 20260506181340 | 16 | 157 | 0.0 | 0.0 | 0.00 | 0.00 | 0.00 | 71 | 1021.4 |
| 20260506180837 | 16 | 163 | 0.0 | 1.6 | 0.00 | 0.00 | 0.00 | 70 | 1021.3 |
| 20260506180333 | 16 | 185 | 1.6 | 1.6 | 0.00 | 0.00 | 0.00 | 71 | 1021.3 |
| 20260506175829 | 16 | 164 | 0.0 | 1.6 | 0.00 | 0.00 | 0.00 | 71 | 1021.4 |
| 20260506175326 | 16 | 186 | 0.0 | 1.6 | 0.00 | 0.00 | 0.00 | 70 | 1021.4 |
| 20260506174824 | 16 | 175 | 0.0 | 0.0 | 0.00 | 0.00 | 0.00 | 69 | 1021.0 |
| 20260506174321 | 17 | 154 | 0.0 | 1.6 | 0.00 | 0.00 | 0.00 | 69 | 1021.5 |
| 20260506173818 | 17 | 218 | 6.4 | 9.7 | 0.00 | 0.00 | 0.00 | 68 | 1021.3 |
| 20260506173315 | 17 | 223 | 6.4 | 9.7 | 0.00 | 0.00 | 0.00 | 68 | 1021.2 |
| 20260506172812 | 17 | 214 | 8.0 | 9.7 | 0.00 | 0.00 | 0.00 | 67 | 1021.3 |
| 20260506172309 | 17 | 218 | 4.8 | 9.7 | 0.00 | 0.00 | 0.00 | 68 | 1021.2 |
| 20260506171806 | 17 | 208 | 6.4 | 8.0 | 0.00 | 0.00 | 0.00 | 68 | 1021.0 |
| 20260506171303 | 17 | 209 | 4.8 | 8.0 | 0.00 | 0.00 | 0.00 | 68 | 1021.2 |
| 20260506170801 | 17 | 210 | 4.8 | 9.7 | 0.00 | 0.00 | 0.00 | 68 | 1021.0 |
| 20260506170257 | 17 | 239 | 8.0 | 9.7 | 0.00 | 0.00 | 0.00 | 67 | 1021.0 |
| 20260506165756 | 17 | 216 | 6.4 | 8.0 | 0.00 | 0.00 | 0.00 | 66 | 1021.1 |
| 20260506165253 | 17 | 178 | 8.0 | 11.3 | 0.00 | 0.00 | 0.00 | 66 | 1021.0 |
| 20260506164749 | 17 | 223 | 8.0 | 11.3 | 0.00 | 0.00 | 0.00 | 66 | 1021.0 |
| 20260506164246 | 17 | 233 | 8.0 | 11.3 | 0.00 | 0.00 | 0.00 | 65 | 1020.9 |
| 20260506163743 | 17 | 224 | 8.0 | 11.3 | 0.00 | 0.00 | 0.00 | 65 | 1020.9 |
| 20260506163238 | 17 | 215 | 8.0 | 11.3 | 0.00 | 0.00 | 0.00 | 65 | 1020.9 |
| 20260506162734 | 17 | 210 | 8.0 | 12.9 | 0.00 | 0.00 | 0.00 | 65 | 1020.8 |
| 20260506162232 | 17 | 179 | 8.0 | 12.9 | 0.00 | 0.00 | 0.00 | 65 | 1020.8 |
| 20260506161729 | 17 | 197 | 4.8 | 8.0 | 0.00 | 0.00 | 0.00 | 65 | 1020.8 |
| 20260506161226 | 17 | 188 | 9.7 | 16.1 | 0.00 | 0.00 | 0.00 | 65 | 1020.7 |
| 20260506160724 | 17 | 176 | 9.7 | 16.1 | 0.00 | 0.00 | 0.00 | 63 | 1020.6 |
| 20260506160220 | 17 | 200 | 11.3 | 14.5 | 0.00 | 0.00 | 0.00 | 63 | 1020.7 |
| 20260506155719 | 17 | 191 | 14.5 | 17.7 | 0.00 | 0.00 | 0.00 | 63 | 1020.5 |
| 20260506155216 | 18 | 177 | 12.9 | 14.5 | 0.00 | 0.00 | 0.00 | 63 | 1020.4 |
| 20260506153323 | 18 | 225 | 9.7 | 12.9 | 0.00 | 0.00 | 0.00 | 60 | 1020.4 |
| 20260506152820 | 18 | 175 | 14.5 | 17.7 | 0.00 | 0.00 | 0.00 | 60 | 1020.5 |
| 20260506152317 | 18 | 192 | 11.3 | 14.5 | 0.00 | 0.00 | 0.00 | 60 | 1020.6 |
| 20260506151816 | 18 | 208 | 11.3 | 16.1 | 0.00 | 0.00 | 0.00 | 59 | 1020.7 |
| 20260506151312 | 18 | 204 | 12.9 | 17.7 | 0.00 | 0.00 | 0.00 | 59 | 1020.6 |
| 20260506150809 | 18 | 191 | 11.3 | 17.7 | 0.00 | 0.00 | 0.00 | 59 | 1020.5 |
| 20260506150306 | 18 | 197 | 12.9 | 16.1 | 0.00 | 0.00 | 0.00 | 59 | 1020.8 |
| 20260506145803 | 18 | 202 | 16.1 | 17.7 | 0.00 | 0.00 | 0.00 | 59 | 1020.5 |
| 20260506145259 | 19 | 193 | 12.9 | 16.1 | 0.00 | 0.00 | 0.00 | 59 | 1020.5 |
| 20260506144757 | 18 | 203 | 16.1 | 17.7 | 0.00 | 0.00 | 0.00 | 59 | 1020.4 |
| 20260506144254 | 19 | 195 | 17.7 | 17.7 | 0.00 | 0.00 | 0.00 | 59 | 1020.5 |
| 20260506143752 | 19 | 215 | 12.9 | 17.7 | 0.00 | 0.00 | 0.00 | 59 | 1020.5 |
| 20260506143248 | 19 | 178 | 16.1 | 17.7 | 0.00 | 0.00 | 0.00 | 59 | 1020.6 |
| 20260506142747 | 19 | 189 | 17.7 | 20.9 | 0.00 | 0.00 | 0.00 | 60 | 1020.5 |
| 20260506142245 | 19 | 197 | 17.7 | 22.5 | 0.00 | 0.00 | 0.00 | 60 | 1020.2 |
| 20260506141743 | 19 | 182 | 14.5 | 20.9 | 0.00 | 0.00 | 0.00 | 61 | 1020.5 |
| 20260506141241 | 19 | 203 | 14.5 | 20.9 | 0.00 | 0.00 | 0.00 | 60 | 1020.3 |
| 20260506140738 | 19 | 181 | 12.9 | 16.1 | 0.00 | 0.00 | 0.00 | 59 | 1020.4 |
| 20260506140235 | 19 | 193 | 16.1 | 20.9 | 0.00 | 0.00 | 0.00 | 58 | 1020.4 |
| 20260506135732 | 20 | 171 | 19.3 | 22.5 | 0.00 | 0.00 | 0.00 | 56 | 1020.5 |
| 20260506135228 | 19 | 194 | 17.7 | 22.5 | 0.00 | 0.00 | 0.00 | 58 | 1020.3 |
| 20260506134725 | 20 | 172 | 12.9 | 16.1 | 0.00 | 0.00 | 0.00 | 57 | 1020.5 |
| 20260506134221 | 20 | 204 | 14.5 | 17.7 | 0.00 | 0.00 | 0.00 | 57 | 1020.5 |
| 20260506133719 | 20 | 165 | 14.5 | 20.9 | 0.00 | 0.00 | 0.00 | 58 | 1020.4 |
| 20260506133215 | 20 | 154 | 9.7 | 22.5 | 0.00 | 0.00 | 0.00 | 60 | 1020.5 |
| 20260506132712 | 20 | 217 | 14.5 | 16.1 | 0.00 | 0.00 | 0.00 | 59 | 1020.5 |
| 20260506132209 | 20 | 167 | 17.7 | 20.9 | 0.00 | 0.00 | 0.00 | 56 | 1020.5 |
| 20260506131707 | 20 | 163 | 14.5 | 17.7 | 0.00 | 0.00 | 0.00 | 56 | 1020.6 |
| 20260506131203 | 20 | 199 | 14.5 | 22.5 | 0.00 | 0.00 | 0.00 | 58 | 1020.5 |
| 20260506130700 | 20 | 235 | 14.5 | 17.7 | 0.00 | 0.00 | 0.00 | 56 | 1020.5 |
| 20260506130157 | 20 | 201 | 12.9 | 22.5 | 0.00 | 0.00 | 0.00 | 56 | 1020.6 |
| 20260506125655 | 20 | 205 | 11.3 | 16.1 | 0.00 | 0.00 | 0.00 | 55 | 1020.5 |
| 20260506125152 | 20 | 183 | 11.3 | 20.9 | 0.00 | 0.00 | 0.00 | 57 | 1020.3 |
| 20260506124650 | 20 | 157 | 14.5 | 17.7 | 0.00 | 0.00 | 0.00 | 56 | 1020.6 |
| 20260506124148 | 20 | 176 | 12.9 | 20.9 | 0.00 | 0.00 | 0.00 | 57 | 1020.7 |
| 20260506123645 | 20 | 189 | 16.1 | 20.9 | 0.00 | 0.00 | 0.00 | 59 | 1020.5 |
| 20260506123144 | 19 | 195 | 9.7 | 20.9 | 0.00 | 0.00 | 0.00 | 60 | 1020.4 |
| 20260506122640 | 20 | 187 | 17.7 | 22.5 | 0.00 | 0.00 | 0.00 | 58 | 1020.4 |
| 20260506122138 | 20 | 154 | 17.7 | 24.1 | 0.00 | 0.00 | 0.00 | 58 | 1020.6 |
| 20260506121635 | 20 | 172 | 14.5 | 17.7 | 0.00 | 0.00 | 0.00 | 58 | 1020.7 |
| 20260506121131 | 20 | 187 | 16.1 | 20.9 | 0.00 | 0.00 | 0.00 | 59 | 1020.7 |
| 20260506120629 | 20 | 163 | 14.5 | 22.5 | 0.00 | 0.00 | 0.00 | 56 | 1020.5 |
| 20260506120126 | 20 | 190 | 17.7 | 22.5 | 0.00 | 0.00 | 0.00 | 55 | 1020.8 |
| 20260506115625 | 20 | 140 | 12.9 | 16.1 | 0.00 | 0.00 | 0.00 | 56 | 1020.4 |
| 20260506115123 | 20 | 159 | 11.3 | 16.1 | 0.00 | 0.00 | 0.00 | 57 | 1020.6 |
| 20260506114620 | 20 | 184 | 14.5 | 20.9 | 0.00 | 0.00 | 0.00 | 59 | 1020.6 |
| 20260506114118 | 20 | 201 | 11.3 | 17.7 | 0.00 | 0.00 | 0.00 | 57 | 1020.8 |
| 20260506113616 | 20 | 162 | 12.9 | 17.7 | 0.00 | 0.00 | 0.00 | 57 | 1020.8 |
| 20260506113113 | 20 | 135 | 11.3 | 17.7 | 0.00 | 0.00 | 0.00 | 55 | 1020.6 |
| 20260506112609 | 19 | 112 | 14.5 | 20.9 | 0.00 | 0.00 | 0.00 | 57 | 1020.6 |
| 20260506112107 | 19 | 144 | 19.3 | 22.5 | 0.00 | 0.00 | 0.00 | 57 | 1020.8 |
| 20260506111604 | 19 | 136 | 11.3 | 20.9 | 0.00 | 0.00 | 0.00 | 60 | 1020.9 |
| 20260506111102 | 19 | 170 | 11.3 | 17.7 | 0.00 | 0.00 | 0.00 | 58 | 1020.7 |
| 20260506110559 | 18 | 134 | 16.1 | 25.7 | 0.00 | 0.00 | 0.00 | 60 | 1020.7 |
| 20260506110056 | 19 | 156 | 12.9 | 20.9 | 0.00 | 0.00 | 0.00 | 61 | 1020.9 |
| 20260506105552 | 19 | 146 | 20.9 | 22.5 | 0.00 | 0.00 | 0.00 | 57 | 1020.8 |
| 20260506105050 | 20 | 124 | 17.7 | 22.5 | 0.00 | 0.00 | 0.00 | 58 | 1020.9 |
| 20260506104548 | 20 | 134 | 16.1 | 22.5 | 0.00 | 0.00 | 0.00 | 58 | 1020.8 |
| 20260506104045 | 19 | 144 | 8.0 | 24.1 | 0.00 | 0.00 | 0.00 | 61 | 1021.0 |
| 20260506103542 | 19 | 129 | 20.9 | 25.7 | 0.00 | 0.00 | 0.00 | 59 | 1020.9 |
| 20260506103039 | 19 | 149 | 14.5 | 20.9 | 0.00 | 0.00 | 0.00 | 57 | 1020.7 |
| 20260506102537 | 18 | 135 | 14.5 | 24.1 | 0.00 | 0.00 | 0.00 | 59 | 1021.1 |
| 20260506102034 | 19 | 139 | 12.9 | 17.7 | 0.00 | 0.00 | 0.00 | 58 | 1020.9 |
| 20260506101531 | 20 | 128 | 16.1 | 20.9 | 0.00 | 0.00 | 0.00 | 58 | 1021.1 |
| 20260506101028 | 20 | 124 | 14.5 | 20.9 | 0.00 | 0.00 | 0.00 | 60 | 1020.8 |
| 20260506100526 | 20 | 126 | 17.7 | 20.9 | 0.00 | 0.00 | 0.00 | 59 | 1021.0 |
| 20260506100024 | 20 | 197 | 16.1 | 24.1 | 0.00 | 0.00 | 0.00 | 57 | 1021.0 |
| 20260506095523 | 19 | 132 | 17.7 | 22.5 | 0.00 | 0.00 | 0.00 | 59 | 1021.1 |
| 20260506095018 | 19 | 148 | 11.3 | 22.5 | 0.00 | 0.00 | 0.00 | 60 | 1021.1 |
| 20260506094517 | 19 | 169 | 16.1 | 24.1 | 0.00 | 0.00 | 0.00 | 61 | 1021.1 |
| 20260506094014 | 18 | 139 | 12.9 | 17.7 | 0.00 | 0.00 | 0.00 | 59 | 1021.0 |
| 20260506093512 | 18 | 149 | 19.3 | 27.4 | 0.00 | 0.00 | 0.00 | 59 | 1021.0 |
| 20260506093010 | 18 | 141 | 17.7 | 24.1 | 0.00 | 0.00 | 0.00 | 59 | 1021.1 |
| 20260506092507 | 19 | 173 | 11.3 | 22.5 | 0.00 | 0.00 | 0.00 | 57 | 1021.1 |
| 20260506092003 | 19 | 161 | 11.3 | 17.7 | 0.00 | 0.00 | 0.00 | 58 | 1021.1 |
| 20260506091502 | 19 | 127 | 12.9 | 24.1 | 0.00 | 0.00 | 0.00 | 56 | 1021.2 |
| 20260506090959 | 19 | 127 | 14.5 | 20.9 | 0.00 | 0.00 | 0.00 | 55 | 1021.1 |
| 20260506090457 | 19 | 151 | 11.3 | 22.5 | 0.00 | 0.00 | 0.00 | 54 | 1021.2 |
| 20260506085953 | 20 | 148 | 20.9 | 24.1 | 0.00 | 0.00 | 0.00 | 53 | 1021.2 |
| 20260506085450 | 20 | 164 | 11.3 | 20.9 | 0.00 | 0.00 | 0.00 | 50 | 1021.2 |
| 20260506084946 | 20 | 156 | 14.5 | 17.7 | 0.00 | 0.00 | 0.00 | 50 | 1021.2 |
| 20260506084443 | 20 | 193 | 17.7 | 22.5 | 0.00 | 0.00 | 0.00 | 52 | 1021.3 |
| 20260506083939 | 19 | 139 | 14.5 | 22.5 | 0.00 | 0.00 | 0.00 | 53 | 1021.0 |
| 20260506083437 | 19 | 163 | 16.1 | 20.9 | 0.00 | 0.00 | 0.00 | 52 | 1021.2 |
| 20260506082934 | 19 | 168 | 16.1 | 17.7 | 0.00 | 0.00 | 0.00 | 48 | 1021.4 |
| 20260506082431 | 20 | 188 | 12.9 | 17.7 | 0.00 | 0.00 | 0.00 | 50 | 1021.1 |
| 20260506081926 | 19 | 134 | 11.3 | 17.7 | 0.00 | 0.00 | 0.00 | 51 | 1021.4 |
| 20260506081425 | 19 | 184 | 17.7 | 20.9 | 0.00 | 0.00 | 0.00 | 51 | 1021.3 |
| 20260506080922 | 19 | 167 | 11.3 | 16.1 | 0.00 | 0.00 | 0.00 | 51 | 1021.1 |
| 20260506080418 | 19 | 167 | 16.1 | 17.7 | 0.00 | 0.00 | 0.00 | 49 | 1021.0 |
| 20260506073403 | 20 | 163 | 8.0 | 12.9 | 0.00 | 0.00 | 0.00 | 48 | 1021.0 |
| 20260506072900 | 20 | 202 | 8.0 | 14.5 | 0.00 | 0.00 | 0.00 | 48 | 1020.9 |
| 20260506072357 | 20 | 132 | 9.7 | 14.5 | 0.00 | 0.00 | 0.00 | 49 | 1020.8 |
| 20260506071854 | 19 | 143 | 8.0 | 12.9 | 0.00 | 0.00 | 0.00 | 48 | 1020.8 |
| 20260506071352 | 19 | 144 | 9.7 | 16.1 | 0.00 | 0.00 | 0.00 | 48 | 1020.9 |
| 20260506070849 | 19 | 180 | 8.0 | 14.5 | 0.00 | 0.00 | 0.00 | 47 | 1020.7 |